Location: North Bay Shore
(40.7362°N, 73.2626°W)
Time: 07:11:09
(UTC+00:00)

USA 305 - Pass Details

Date: 29 October 2020
Orbit: 568 x 577 km, 54.0° (Epoch: 30 November)

Event Time Altitude Azimuth Distance (km) Brightness Sun altitude
Rises 22:36:50 0° 314° (NW) 2,788 7.0 -9.0°
Reaches altitude 10° 22:39:22 10° 327° (NNW) 1,885 5.9 -9.5°
Maximum altitude 22:43:04 28° 26° (NNE) 1,100 4.0 -10.2°
Enters shadow 22:45:50 15° 78° (ENE) 1,578 4.5 -10.7°
